User: anonymous   Login
Location: *
(33.3200°N, 8.3381°W)
Time: 17:45:33
(UTC+00:00)
Language:

NOSS 3-4 (A) - Orbit

View from above orbital plane
View from above orbital plane
View from above satellite
View from above satellite

Ground track
Ground track

The orbit data is extracted from the following two-line orbital elements,

1 31701U 07027A   20194.91253263 0.00000000  00000-0  00000-0 0    08
2 31701  63.3914 102.0820 0285461  20.1552 339.8448 13.40803669    03
Epoch (UTC): 12 July 2020 21:54:02
Eccentricity: 0.0285461
inclination: 63.3914°
perigee height: 892 km
apogee height: 1320 km
right ascension of ascending node: 102.0820°
argument of perigee: 20.1552°
revolutions per day: 13.40803669
mean anomaly at epoch: 339.8448°
orbit number at epoch: 0

The dashed part of the orbit path shows where the satellite is in the earth's shadow,  

DLR